INTELSAT 35E (IS-35E) (42818 NORAD) Tracking and Keplerian Element Data

This shows tracking and keplerian element data for the satellite.

Feedback or suggestion? Click here.




ElementValue
Catalog42818
NameINTELSAT 35E (IS-35E)
Epoch Orbit698
Epoch Day146.47686507
Epoch Year2019
RAAN213.6692
Inclination0.0242
Eccentricity0.0001843
Argument of Perigee211.4976
Mean Anonmoly315.7564
Mean Motion1.00270776
Decay Rate-2.4E-06
L11 42818U 17041A 19146.47686507 -.00000240 00000-0 00000+0 0 9996
L22 42818 0.0242 213.6692 0001843 211.4976 315.7564 1.00270776 6982

Live tracking and technical data element details for INTELSAT 35E (IS-35E) (NORAD 42818). INTELSAT 35E (IS-35E) can be tracked NOW for your location showing map with azimuth and elevation plus other details from your city location.

Track the satellite on the map from your city or location and see movement details for azimuth, elevation, latitude, longitude, range, height, and movement on the map or in text.







IsCatalogInMostPopularTable: catalog: 42818, numindb: 216
Update: records affected: 1



GetName: 42818 INTELSAT 35E (IS-35E)

Hit Count: updated at: Mon, 27 May 2019 03:07:37 GMT